Location: Unspecified
(52.4292°N, 19.3359°E)
Time: 22:05:00
(UTC+02:00)

Vanguard 3 - All Passes

Search period start: 27 May 2024 00:00
Search period end: 06 June 2024 00:00
Orbit: 509 x 3232 km, 33.3° (Epoch: 26 May)

Date Brightness Start Highest point End Pass type
(mag) Time Alt. Az. Time Alt. Az. Time Alt. Az.
27 May - 01:00:04 10° WSW 01:05:52 13° SW 01:12:19 10° SSW visible
27 May - 17:12:41 10° SSE 17:13:44 10° SE 17:14:52 10° SE daylight
27 May - 19:17:19 10° SW 19:23:36 24° SSE 19:32:52 10° ESE daylight
27 May - 21:26:47 10° WSW 21:35:01 27° S 21:46:56 10° SE visible
27 May - 23:39:10 10° WSW 23:47:12 18° SSW 23:57:11 10° S visible
28 May - 18:01:51 10° SSW 18:06:14 17° SSE 18:12:03 10° ESE daylight
28 May - 20:09:54 10° SW 20:16:48 26° S 20:27:02 10° SE daylight
28 May - 22:20:35 10° WSW 22:28:35 22° SSW 22:39:25 10° SSE visible
29 May - 00:38:49 10° SW 00:40:39 10° SW 00:42:33 10° SSW visible
29 May - 18:53:39 10° SSW 18:59:04 21° SSE 19:06:48 10° ESE daylight
29 May - 21:03:04 10° SW 21:10:12 24° S 21:20:24 10° SE daylight
29 May - 23:15:48 10° SW 23:22:07 15° SSW 23:29:49 10° S visible
30 May - 17:38:21 10° S 17:41:48 15° SSE 17:46:10 10° SE daylight
30 May - 19:46:15 10° SW 19:52:11 23° S 20:00:45 10° SE daylight
30 May - 21:57:02 10° SW 22:03:41 19° SSW 22:12:30 10° SSE visible
31 May - 18:30:06 10° SSW 18:34:36 19° SSE 18:40:47 10° SE daylight
31 May - 20:39:30 10° SW 20:45:30 20° S 20:53:50 10° SSE daylight
31 May - 22:53:11 10° SW 22:57:10 12° SSW 23:01:44 10° S visible
01 Jun - 17:15:01 10° S 17:17:25 12° SSE 17:20:18 10° SE daylight
01 Jun - 19:22:44 10° SW 19:27:40 19° S 19:34:29 10° SE daylight
01 Jun - 21:33:48 10° SW 21:38:54 15° SSW 21:45:21 10° SSE visible
02 Jun - 18:06:39 10° SSW 18:10:13 16° SSE 18:14:49 10° SE daylight
02 Jun - 20:16:09 10° SW 20:20:54 17° S 20:27:09 10° SSE daylight
03 Jun - 16:52:21 10° SSE 16:53:06 10° SSE 16:53:53 10° SSE daylight
03 Jun - 18:59:22 10° SW 19:03:13 16° S 19:08:13 10° SE daylight
03 Jun - 21:11:17 10° SW 21:14:14 12° SSW 21:17:37 10° S daylight
04 Jun - 17:43:23 10° SSW 17:45:51 13° S 17:48:48 10° SE daylight
04 Jun - 19:53:10 10° SW 19:56:23 13° S 20:00:16 10° SSE daylight
05 Jun - 18:36:19 10° SSW 18:38:49 12° S 18:41:47 10° SSE daylight
